Regional Weather Roundup
Issued by NWS

Home | Current Version | Previous Version | Text Only | Print | Product List | Glossary Off
Versions: 1 2 3 4 5 6 7 8 9 10 11 12 13 14 15 16 17 18 19 20 21 22 23 24 25 26 27 28 29 30 31 32 33 34 35 36 37 38 39 40 41 42 43 44 45 46 47 48 49 50

900
ASUS43 KOAX 270910
RWRNE

WEATHER ROUNDUP FOR NEBRASKA
NATIONAL WEATHER SERVICE OMAHA NE
400 AM CDT THU APR 27 2017

NOTES: SATELLITE DATA IS BEING USED TO AUGMENT CLOUD COVER ABOVE
       12000 FEET.
       "FAIR" INDICATES FEW OR NO CLOUDS BELOW 12,000 FEET WITH NO
       SIGNIFICANT WEATHER AND/OR OBSTRUCTIONS TO VISIBILITY.

  * THESE STATIONS DO NOT REPORT WEATHER SUCH AS RAIN...SNOW OR FOG.

NEZ001>004-019>022-054>056-271000-
NEBRASKA PANHANDLE

CITY           SKY/WX    TMP DP  RH WIND       PRES   REMARKS
SCOTTSBLUFF    CLOUDY    39  36  89 E9        29.60F WCI  33
ALLIANCE       PTCLDY    30  28  92 SE8       29.62F WCI  22
CHADRON        PTCLDY    30  27  88 NE3       29.65F
KIMBALL        PTCLDY    38  37  97 S7        29.61F WCI  32
SIDNEY         MOCLDY    37  35  92 S7        29.62F WCI  32
$$

NEZ057>060-069>072-079>082-271000-
SOUTHWEST NEBRASKA

CITY           SKY/WX    TMP DP  RH WIND       PRES   REMARKS
NORTH PLATTE   CLOUDY    36  32  85 CALM      29.70F
IMPERIAL       PTCLDY    37  30  75 SE9       29.65F WCI  30
LEXINGTON      CLEAR     30  27  90 W3        29.70F
MCCOOK         CLEAR     32  28  85 NE5       29.69F WCI  27
OGALLALA       CLOUDY    39  32  77 E7        29.66F WCI  34
$$

NEZ005>010-023>029-035>040-094-271000-
NORTH CENTRAL NEBRASKA

CITY           SKY/WX    TMP DP  RH WIND       PRES   REMARKS
VALENTINE      CLEAR     23  19  85 W7        29.69F WCI  15
AINSWORTH      CLEAR     28  27  96 NW7       29.69S WCI  21
BROKEN BOW     CLEAR     29  25  85 CALM      29.68F
O`NEILL        CLEAR     28  25  91 W6        29.69S WCI  21
ORD            CLEAR     28  24  85 NW6       29.67F WCI  22
THEDFORD       CLEAR     25  24  94 CALM      29.68F
$$

NEZ041-046>049-061>064-073>077-083>087-271000-
SOUTH CENTRAL NEBRASKA

CITY           SKY/WX    TMP DP  RH WIND       PRES   REMARKS
GRAND ISLAND   CLEAR     28  26  92 W7        29.69F WCI  21
AURORA         CLEAR     32  28  86 NW10      29.68F WCI  23
HASTINGS       CLEAR     30  25  81 W5        29.71S WCI  25
HEBRON         PTCLDY    28  26  89 CALM      29.71S
HOLDREGE       CLEAR     30  27  89 CALM      29.70F
KEARNEY *      CLEAR     34  27  75 W7        29.71S WCI  28
YORK           PTCLDY    30  28  93 NW9       29.69S WCI  22
$$

NEZ011>018-030>034-042>045-271000-
NORTHEAST NEBRASKA

CITY           SKY/WX    TMP DP  RH WIND       PRES   REMARKS
NORFOLK        PTCLDY    32  27  81 W8        29.66F WCI  25
ALBION         PTCLDY    29  26  88 CALM      29.68F
BLAIR          CLOUDY    37  30  77 NW13      29.64S WCI  29
FREMONT        CLOUDY    38  32  79 NW9       29.67S WCI  31
TEKAMAH        CLOUDY    36  27  69 NW14      29.66R WCI  27
WAYNE          MOCLDY    32  30  92 NW8       29.67R WCI  25
$$

NEZ050>053-065>068-078-088>093-271000-
SOUTHEAST NEBRASKA

CITY           SKY/WX    TMP DP  RH WIND       PRES   REMARKS
LINCOLN        CLOUDY    38  31  76 W9        29.68F WCI  31
OMAHA EPPLEY   CLOUDY    39  29  67 NW14      29.65S WCI  31
BEATRICE       CLEAR     35  30  83 W8        29.68S WCI  29
FALLS CITY     MOCLDY    39  32  76 W8        29.66R WCI  33
NEBRASKA CITY  CLOUDY    40  29  64 NW14      29.66S WCI  33
PLATTSMOUTH    CLOUDY    39  28  64 NW14      29.65R WCI  31
$$

NEZ044-045-051>053-067-271000-
OMAHA AREA

CITY           SKY/WX    TMP DP  RH WIND       PRES   REMARKS
OMAHA EPPLEY   CLOUDY    39  29  67 NW14      29.65S WCI  31
BLAIR          CLOUDY    37  30  77 NW13      29.64S WCI  29
FREMONT        CLOUDY    38  32  79 NW9       29.67S WCI  31
MILLARD        CLOUDY    41  33  72 NW10      29.66R
OFFUTT AFB     CLOUDY    40  30  69 NW14      29.64F WCI  32
PLATTSMOUTH    CLOUDY    39  28  64 NW14      29.65R WCI  31
WAHOO          CLOUDY    40  31  72 NW12      29.66S WCI  32
$$




USA.gov is the U.S. government's official web portal to all federal, state and local government web resources and services.